[[{"header":{"parameterUnit":"m.s-1","parameterCategory":1,"la1":30.2991,"la2":30.254,"lo1":-89.0895,"lo2":-89.0444,"dy":0.0017,"dx":0.0017,"nx":28,"ny":28,"refTime":"2025-04-06T21:00:00:Z","depth":0,"parameterNumber":2,"parameterNumberName":"U-component_of_WINDS"},"data":[0,0,0,0,0,0,0,0,0,0,0,0,0,0,0,0,0,0,0,0,0,0,0,0,0,0,0,0,0,0,0,0,0,0,0,0,0,0,0,0,0,0,0,0,0,0,0,0,0,0,0,0,0,0,0,0,0,0,-0.999,-0.9989,0,-0.9946,-0.9946,-0.9945,-0.9909,-0.9909,-0.9909,-0.9908,-0.9864,-0.9864,-0.9863,0,0,0,0,0,0,0,0,0,0,0,0,0,-1.0042,-1.0041,-0.999,-0.9989,-0.9988,-0.9946,-0.9946,-0.9945,-0.9909,-0.9909,-0.9909,-0.9908,-0.9865,-0.9864,-0.9863,0,0,0,0,0,0,0,0,0,0,0,0,0,-1.0011,-1.0041,-0.999,-0.9966,-0.9963,-0.9946,-0.9946,-0.9945,-0.991,-0.9909,-0.9908,-0.9908,-0.9865,-0.9864,-0.9863,-0.9867,0,0,-0.9859,-0.9858,0,0,0,0,0,0,0,0,-1.0013,-1.0009,-0.997,-0.9967,-0.9964,-0.9933,-0.9948,-0.9919,-0.991,-0.993,-0.9908,-0.9908,-0.9888,-0.9885,-0.9878,-0.9865,-0.9863,-0.9859,-0.9858,-0.9858,-0.9857,0,0,0,0,0,0,0,-1.0015,-1.0011,-0.9972,-0.9969,-0.9966,-0.9957,-0.9952,-0.9942,-0.9913,-0.9928,-0.9925,-0.9921,-0.9886,-0.9879,-0.9876,-0.9862,-0.9859,-0.9858,-0.9857,-0.9857,-0.985,-0.9851,0,0,0,0,0,0,-1.0021,-1.0013,-0.9974,-0.9971,-0.9987,-0.9957,-0.9951,-0.9943,-0.9913,-0.9907,-0.9921,-0.9919,-0.9881,-0.9878,-0.9875,-0.9877,-0.9858,-0.9856,-0.9856,-0.9849,-0.985,-0.9851,0,0,0,0,0,0,-1.0022,-1.0017,-0.9976,-0.9991,-0.9985,-0.9956,-0.9948,-0.9943,-0.9936,-0.9907,-0.9902,-0.9919,-0.9881,-0.9876,-0.9869,-0.9875,-0.9856,-0.9855,-0.9849,-0.985,-0.985,-0.9882,0,0,0,0,0,0,-1.0023,-1.0018,-1.0019,-0.9991,-0.9984,-0.997,-0.9948,-0.9942,-0.9934,-0.993,-0.9904,-0.9899,-0.988,-0.9871,-0.9868,-0.9873,-0.9854,-0.9848,-0.9849,-0.985,-0.9881,-0.9884,-0.9887,0,0,0,0,0,-1.0025,-1.003,-1.0019,-1.0015,-0.9985,-0.9971,-0.9967,-0.9944,-0.9934,-0.9935,-0.9917,-0.99,-0.9875,-0.987,-0.9866,-0.9872,-0.9848,-0.9849,-0.985,-0.9879,-0.9884,-0.9887,0,0,0,0,0,0,-1.006,-1.0026,-1.0014,-1.001,-0.9993,-0.9965,-0.9965,-0.995,-0.9936,-0.9934,-0.9906,-0.9901,-0.9896,-0.9883,-0.9879,-0.9874,-0.9859,-0.986,-0.9883,-0.9886,-0.989,-0.9893,-0.9853,0,0,0,0,0,-1.0067,-1.0058,-1.0029,-1.0028,-1.002,-0.9994,-0.9987,-0.9971,-0.9953,-0.9946,-0.9928,-0.9911,-0.9899,-0.9892,-0.988,-0.9879,-0.9872,-0.988,-0.9884,-0.9887,-0.9887,-0.9886,-0.9889,-0.9855,-0.9855,-0.9855,0,0,-1.0081,-1.0062,-1.0058,-1.0034,-1.002,-1.0011,-0.9989,-0.9981,-0.9974,-0.9945,-0.9937,-0.9922,-0.9902,-0.9898,-0.9895,-0.9887,-0.9895,-0.9888,-0.9891,-0.989,-0.9887,-0.989,-0.9893,-0.9856,-0.9855,-0.9855,0,0,-1.0103,-1.0088,-1.0085,-1.0071,-1.0049,-1.0032,-1.0031,-1.0005,-0.9994,-0.9985,-0.9964,-0.9955,-0.9936,-0.9922,-0.9913,-0.9929,-0.9913,-0.9926,-0.9944,-0.9942,-0.9945,-0.9947,-0.9953,-0.9956,-0.9927,-0.9927,-0.9927,0,-1.0124,-1.011,-1.0086,-1.0079,-1.0069,-1.0042,-1.004,-1.0027,-1.0003,-0.9997,-0.9988,-0.9963,-0.9947,-0.9939,-0.9943,-0.9936,-0.9935,-0.9929,-0.9946,-0.9948,-0.995,-0.9956,-0.9958,-0.9929,-0.9929,-0.9929,-0.9928,0,-1.0136,-1.0127,-1.0128,-1.0104,-1.0095,-1.009,-1.0065,-1.0058,-1.0043,-1.0027,-1.0018,-0.9999,-0.9982,-0.9979,-0.9964,-0.9969,-0.9964,-0.9952,-0.9936,-0.9956,-0.996,-0.9962,-0.9931,-0.9931,-0.993,-0.993,0,0,-1.0179,-1.0142,-1.0143,-1.0132,-1.0106,-1.0098,-1.0092,-1.0076,-1.007,-1.0054,-1.0049,-1.0033,-1.002,-1.001,-0.9993,-0.9992,-1.0007,-0.9979,-0.9978,-0.9985,-1.0011,-1.0021,-1.0023,-0.9996,-0.9996,-0.9997,-1.0012,0,-1.0196,-1.0184,-1.0162,-1.0157,-1.0148,-1.0122,-1.0117,-1.0101,-1.0085,-1.0076,-1.0059,-1.0048,-1.0032,-1.0026,-1.0023,-1.0006,-1.0012,-1.0004,-0.9991,-0.999,-0.9996,-1.0026,-1.0036,-1.0052,-1.0014,-1.0014,-1.0014,0,-1.0215,-1.02,-1.0194,-1.0169,-1.0164,-1.016,-1.0143,-1.0134,-1.0115,-1.0104,-1.0092,-1.0074,-1.0066,-1.0052,-1.0042,-1.0037,-1.003,-1.0021,-1.0021,-1.0019,-1.0004,-1.0024,-1.0056,-1.0059,-1.0017,-1.0017,-1.0017,0,-1.0246,-1.0225,-1.0219,-1.021,-1.018,-1.0178,-1.0165,-1.0146,-1.0137,-1.0122,-1.0117,-1.0101,-1.0093,-1.0082,-1.006,-1.0052,-1.0052,-1.0036,-1.0042,-1.0043,-1.0043,-1.0044,-1.0075,-1.0039,-1.0039,-1.0039,-1.0039,0,-1.0268,-1.0266,-1.0232,-1.0228,-1.0224,-1.0199,-1.0196,-1.0181,-1.0164,-1.0157,-1.0134,-1.0128,-1.01,-1.009,-1.0073,-1.0067,-1.0063,-1.0054,-1.005,-1.0056,-1.0058,-1.0051,-1.005,-1.004,-1.004,-1.004,-1.0039,0,-1.0303,-1.028,-1.0271,-1.0244,-1.0237,-1.0235,-1.0212,-1.0207,-1.019,-1.0181,-1.0178,-1.0152,-1.0139,-1.0117,-1.0098,-1.0087,-1.0084,-1.0076,-1.009,-1.0088,-1.0095,-1.0095,-1.0124,-1.0126,-1.0089,-1.009,-1.009,0,-1.0318,-1.0315,-1.0287,-1.0281,-1.0269,-1.0259,-1.025,-1.0225,-1.0217,-1.0195,-1.0193,-1.0179,-1.0166,-1.0148,-1.0127,-1.0113,-1.0104,-1.0115,-1.0102,-1.0109,-1.0104,-1.0105,-1.0105,-1.0119,-1.0119,-1.0119,-1.012,0,-1.0348,-1.0337,-1.0325,-1.0309,-1.0299,-1.0285,-1.027,-1.0266,-1.0238,-1.023,-1.0217,-1.0207,-1.0188,-1.0174,-1.0157,-1.0144,-1.0127,-1.0124,-1.0125,-1.0131,-1.014,-1.0135,-1.0099,-1.0124,-1.0123,-1.0123,-1.0123,-1.0123,-1.0373,-1.0369,-1.0349,-1.0336,-1.0323,-1.0309,-1.0303,-1.0286,-1.0274,-1.0257,-1.0243,-1.0231,-1.0212,-1.0187,-1.0175,-1.0166,-1.0158,-1.0159,-1.0159,-1.016,-1.0162,-1.0141,-1.0163,-1.0162,-1.0162,-1.0162,-1.0162,0,-1.0401,-1.0387,-1.0376,-1.0356,-1.0346,-1.0331,-1.0313,-1.0306,-1.0296,-1.028,-1.0267,-1.0253,-1.0239,-1.0218,-1.0203,-1.0199,-1.0191,-1.0196,-1.0196,-1.0193,-1.017,-1.0171,-1.0203,-1.0203,-1.0203,-1.0203,-1.0203,-1.0203,-1.0415,-1.0408,-1.0395,-1.0381,-1.0366,-1.0354,-1.0346,-1.0333,-1.032,-1.0305,-1.0293,-1.0279,-1.0261,-1.0244,-1.0231,-1.0225,-1.0221,-1.0228,-1.022,-1.0199,-1.0195,-1.0191,-1.0192,-1.0227,-1.0227,-1.0243,-1.0244,-1.0244]},{"header":{"parameterUnit":"m.s-1","parameterCategory":1,"la1":30.2991,"la2":30.254,"lo1":-89.0895,"lo2":-89.0444,"dy":0.0017,"dx":0.0017,"nx":28,"ny":28,"refTime":"2025-04-06T21:00:00:Z","depth":0,"parameterNumber":3,"parameterNumberName":"V-component_of_WINDS"},"data":[0,0,0,0,0,0,0,0,0,0,0,0,0,0,0,0,0,0,0,0,0,0,0,0,0,0,0,0,0,0,0,0,0,0,0,0,0,0,0,0,0,0,0,0,0,0,0,0,0,0,0,0,0,0,0,0,0,0,-3.2097,-3.2097,0,-3.2119,-3.2119,-3.2119,-3.2123,-3.2123,-3.2123,-3.2123,-3.2143,-3.2144,-3.2144,0,0,0,0,0,0,0,0,0,0,0,0,0,-3.2058,-3.2059,-3.2097,-3.2097,-3.2098,-3.2119,-3.2119,-3.2119,-3.2123,-3.2123,-3.2123,-3.2123,-3.2143,-3.2144,-3.2145,0,0,0,0,0,0,0,0,0,0,0,0,0,-3.2077,-3.2059,-3.2097,-3.2102,-3.2103,-3.2119,-3.2119,-3.212,-3.2124,-3.2123,-3.2123,-3.2123,-3.2143,-3.2144,-3.2145,-3.2156,0,0,-3.2148,-3.2148,0,0,0,0,0,0,0,0,-3.2076,-3.2078,-3.2101,-3.2102,-3.2103,-3.2118,-3.2113,-3.2132,-3.2124,-3.2116,-3.2123,-3.2123,-3.2135,-3.2137,-3.2141,-3.2157,-3.2158,-3.2148,-3.2149,-3.2149,-3.2149,0,0,0,0,0,0,0,-3.2074,-3.2077,-3.2106,-3.2101,-3.2102,-3.2103,-3.2106,-3.2116,-3.2126,-3.2116,-3.2117,-3.2119,-3.2135,-3.214,-3.2142,-3.2158,-3.2148,-3.2149,-3.2149,-3.215,-3.2187,-3.2187,0,0,0,0,0,0,-3.2072,-3.2076,-3.2105,-3.2106,-3.2088,-3.2104,-3.2107,-3.2113,-3.2126,-3.2128,-3.2119,-3.2119,-3.2138,-3.214,-3.2142,-3.2158,-3.2149,-3.215,-3.2151,-3.2187,-3.2187,-3.2188,0,0,0,0,0,0,-3.2072,-3.2075,-3.2104,-3.2091,-3.2095,-3.2105,-3.2113,-3.2114,-3.2119,-3.2129,-3.213,-3.2123,-3.2138,-3.2141,-3.2153,-3.2159,-3.215,-3.2151,-3.2186,-3.2187,-3.2187,-3.2189,0,0,0,0,0,0,-3.207,-3.2075,-3.2079,-3.2091,-3.2096,-3.2115,-3.2113,-3.2115,-3.2121,-3.2121,-3.2132,-3.2134,-3.2138,-3.2152,-3.2154,-3.216,-3.2152,-3.2186,-3.2187,-3.2187,-3.2189,-3.219,-3.2191,0,0,0,0,0,-3.2069,-3.2078,-3.2079,-3.2083,-3.2102,-3.2115,-3.2118,-3.2123,-3.2121,-3.2126,-3.2133,-3.2133,-3.2158,-3.2153,-3.2156,-3.2162,-3.2186,-3.2186,-3.2187,-3.2188,-3.219,-3.2191,0,0,0,0,0,0,-3.2064,-3.2079,-3.2081,-3.2094,-3.2104,-3.2116,-3.2122,-3.2124,-3.2134,-3.2133,-3.2139,-3.2142,-3.2154,-3.2159,-3.2154,-3.2175,-3.2172,-3.2173,-3.2171,-3.2173,-3.2174,-3.2173,-3.2153,0,0,0,0,0,-3.2065,-3.2075,-3.2088,-3.2098,-3.2103,-3.2112,-3.2118,-3.2122,-3.2131,-3.2135,-3.2142,-3.2151,-3.2161,-3.2167,-3.2176,-3.2189,-3.2193,-3.2195,-3.2196,-3.2197,-3.2198,-3.2208,-3.2209,-3.219,-3.219,-3.219,0,0,-3.2066,-3.2076,-3.2082,-3.2097,-3.2105,-3.2116,-3.2115,-3.2125,-3.2133,-3.2136,-3.2149,-3.2155,-3.2165,-3.2178,-3.2185,-3.2183,-3.2205,-3.2198,-3.2199,-3.22,-3.2209,-3.221,-3.2212,-3.2191,-3.2191,-3.2191,0,0,-3.2074,-3.2082,-3.2093,-3.2101,-3.2113,-3.2119,-3.2122,-3.2134,-3.2139,-3.2152,-3.2155,-3.2164,-3.218,-3.2188,-3.2194,-3.2207,-3.2209,-3.221,-3.2215,-3.2224,-3.2226,-3.2227,-3.2233,-3.2235,-3.2211,-3.2211,-3.2211,0,-3.2074,-3.209,-3.2097,-3.2109,-3.2116,-3.2121,-3.2132,-3.2139,-3.2153,-3.2158,-3.2156,-3.2179,-3.2185,-3.2202,-3.2205,-3.2209,-3.2213,-3.2209,-3.2225,-3.2227,-3.2228,-3.2234,-3.2236,-3.2211,-3.2211,-3.2211,-3.2211,0,-3.209,-3.2101,-3.2108,-3.2124,-3.2132,-3.2143,-3.2152,-3.2159,-3.2163,-3.2169,-3.2184,-3.2192,-3.2205,-3.2209,-3.2211,-3.2226,-3.2225,-3.2224,-3.2221,-3.223,-3.2236,-3.2238,-3.2212,-3.2212,-3.2212,-3.2212,0,0,-3.2094,-3.2116,-3.2118,-3.2126,-3.2141,-3.215,-3.2161,-3.2174,-3.2181,-3.2191,-3.2202,-3.2216,-3.2217,-3.2223,-3.2227,-3.2235,-3.2247,-3.2233,-3.2234,-3.2237,-3.2265,-3.2267,-3.2269,-3.2248,-3.2248,-3.2249,-3.2265,0,-3.2105,-3.2127,-3.2135,-3.2153,-3.2164,-3.2169,-3.218,-3.219,-3.2197,-3.2207,-3.2214,-3.2225,-3.2224,-3.2228,-3.2236,-3.2244,-3.2253,-3.2243,-3.2258,-3.2259,-3.2256,-3.2272,-3.2273,-3.2287,-3.2267,-3.2267,-3.2267,0,-3.2119,-3.2132,-3.2152,-3.2167,-3.2172,-3.2181,-3.2195,-3.2205,-3.2217,-3.2222,-3.2231,-3.2235,-3.2247,-3.2243,-3.2261,-3.2254,-3.2261,-3.2266,-3.2267,-3.2269,-3.2264,-3.2275,-3.2292,-3.2295,-3.2271,-3.2271,-3.227,0,-3.2122,-3.2144,-3.2159,-3.2165,-3.2183,-3.219,-3.2198,-3.221,-3.2218,-3.223,-3.2235,-3.2248,-3.2255,-3.2265,-3.2272,-3.2268,-3.2291,-3.2286,-3.2295,-3.2295,-3.23,-3.23,-3.2319,-3.2303,-3.2303,-3.2302,-3.2302,0,-3.2133,-3.2146,-3.2161,-3.217,-3.2184,-3.2193,-3.2207,-3.2215,-3.2226,-3.2237,-3.2242,-3.2252,-3.2261,-3.2272,-3.2278,-3.2293,-3.2296,-3.23,-3.2302,-3.2301,-3.23,-3.2306,-3.2305,-3.2303,-3.2303,-3.2303,-3.2303,0,-3.2139,-3.2149,-3.2167,-3.2183,-3.2188,-3.2198,-3.2212,-3.2221,-3.2229,-3.2243,-3.2247,-3.2259,-3.2273,-3.2281,-3.2298,-3.2302,-3.232,-3.232,-3.2316,-3.2317,-3.2326,-3.2325,-3.235,-3.2354,-3.2334,-3.2334,-3.2334,0,-3.2145,-3.2155,-3.2174,-3.2183,-3.2191,-3.2204,-3.2213,-3.2223,-3.2232,-3.2248,-3.2256,-3.2271,-3.2283,-3.2305,-3.2315,-3.2329,-3.2331,-3.2338,-3.2332,-3.2332,-3.2332,-3.2332,-3.2334,-3.2339,-3.234,-3.234,-3.234,0,-3.2157,-3.2162,-3.2176,-3.2192,-3.2203,-3.2216,-3.2228,-3.2235,-3.2246,-3.2257,-3.2272,-3.2282,-3.2301,-3.2316,-3.2331,-3.2338,-3.2342,-3.2342,-3.2345,-3.2344,-3.2342,-3.2344,-3.232,-3.2341,-3.2341,-3.2341,-3.2341,-3.2341,-3.2164,-3.2174,-3.2189,-3.2205,-3.2216,-3.2228,-3.2239,-3.2249,-3.2262,-3.2279,-3.2284,-3.23,-3.2314,-3.2335,-3.2343,-3.2356,-3.2355,-3.2359,-3.236,-3.2361,-3.2362,-3.2339,-3.2358,-3.2358,-3.2358,-3.2358,-3.2358,0,-3.2176,-3.2187,-3.2202,-3.222,-3.2233,-3.2236,-3.2251,-3.2261,-3.2276,-3.2289,-3.2302,-3.232,-3.2335,-3.2347,-3.2363,-3.2371,-3.2373,-3.2375,-3.2375,-3.2377,-3.2361,-3.2358,-3.2373,-3.2373,-3.2373,-3.2373,-3.2373,-3.2373,-3.2185,-3.2202,-3.221,-3.2234,-3.2244,-3.2262,-3.227,-3.2282,-3.2293,-3.2314,-3.2327,-3.2335,-3.2348,-3.2365,-3.2379,-3.2383,-3.2389,-3.2391,-3.2394,-3.2379,-3.2378,-3.2376,-3.2373,-3.2392,-3.2392,-3.2409,-3.2409,-3.2409]}]]